Weather reports worldwide

Advertisment
Braemar, United Kingdom (99089): temperature & dewpoint: 19.09.2018 22:00:00 - 25.09.2018 22:00:00 (BST)Braemar, United Kingdom (99089): temperature -20cm & temperature -100cm: 19.09.2018 22:00:00 - 25.09.2018 22:00:00 (BST)Braemar, United Kingdom (99089): precipitation: 19.09.2018 22:00:00 - 25.09.2018 22:00:00 (BST)
Date & Time tt [°C] td [°C] tt -20cm [°C] tt -100cm [°C] rr [mm]
25.09.2018 22:00:00 12,6 9,3 - - 0,0
25.09.2018 21:00:00 11,9 8,7 - - 0,0
25.09.2018 20:00:00 12,2 8,3 - - 0,0
25.09.2018 19:00:00 11,6 7,8 - - 0,0
25.09.2018 18:00:00 10,9 7,2 - - 0,0
25.09.2018 17:00:00 10,1 6,6 - - 0,0
25.09.2018 16:00:00 9,9 6,1 - - 0,0
25.09.2018 15:00:00 10,3 5,7 - - 0,0
25.09.2018 14:00:00 10,2 3,0 - - 0,0
25.09.2018 13:00:00 9,7 0,0 - - 0,0
25.09.2018 12:00:00 9,9 2,3 - - 0,0
25.09.2018 11:00:00 9,8 3,2 - - 0,0
25.09.2018 10:00:00 9,2 3,7 9,2 10,7 0,0
25.09.2018 09:00:00 8,4 3,3 - - 0,0
25.09.2018 08:00:00 8,2 3,7 - - 0,0
25.09.2018 07:00:00 7,9 4,0 - - 0,0
25.09.2018 06:00:00 7,6 3,7 - - 0,0
25.09.2018 05:00:00 8,2 3,6 - - 0,0
25.09.2018 04:00:00 8,3 4,6 - - 0,0
25.09.2018 03:00:00 8,7 4,1 - - 0,0
25.09.2018 02:00:00 8,5 4,6 - - 0,0
25.09.2018 01:00:00 8,5 3,9 - - 0,0
25.09.2018 00:00:00 8,7 4,1 - - 0,0
24.09.2018 23:00:00 8,2 4,6 - - 0,0
24.09.2018 22:00:00 8,1 4,9 - - 0,0
24.09.2018 21:00:00 8,2 4,3 - - 0,0
24.09.2018 20:00:00 8,4 4,4 - - 0,0
24.09.2018 19:00:00 9,0 4,3 - - 0,0
24.09.2018 18:00:00 9,0 5,0 - - 0,0
24.09.2018 17:00:00 9,7 4,6 - - 0,0
24.09.2018 16:00:00 10,4 3,5 - - 0,0
24.09.2018 15:00:00 10,0 4,1 - - 0,0
24.09.2018 14:00:00 9,9 2,4 - - 0,0
24.09.2018 13:00:00 9,6 3,1 - - 0,0
24.09.2018 12:00:00 9,5 3,5 - - 0,0
24.09.2018 11:00:00 8,8 2,6 - - 0,0
24.09.2018 10:00:00 8,7 3,6 8,9 10,9 0,0
24.09.2018 09:00:00 7,1 3,3 - - 0,0
24.09.2018 08:00:00 5,0 2,7 - - 0,0
24.09.2018 07:00:00 5,0 2,7 - - 0,0
24.09.2018 06:00:00 4,9 2,3 - - 0,0
24.09.2018 05:00:00 4,5 2,1 - - 0,0
24.09.2018 04:00:00 4,0 1,3 - - 0,0
24.09.2018 03:00:00 2,6 -0,1 - - 0,0
24.09.2018 02:00:00 4,0 0,7 - - 0,0
24.09.2018 01:00:00 4,4 0,7 - - 0,0
24.09.2018 00:00:00 3,5 0,0 - - 0,0
23.09.2018 23:00:00 5,5 -0,1 - - 0,0
23.09.2018 22:00:00 5,5 0,5 - - 0,0
23.09.2018 21:00:00 6,0 0,9 - - 0,0
23.09.2018 20:00:00 6,3 1,7 - - 0,2
23.09.2018 19:00:00 6,6 2,6 - - 0,2
23.09.2018 18:00:00 7,7 2,3 - - 0,0
23.09.2018 17:00:00 8,8 3,0 - - 0,0
23.09.2018 16:00:00 8,4 3,7 - - 0,4
23.09.2018 15:00:00 8,3 3,1 - - 0,8
23.09.2018 14:00:00 9,5 2,8 - - 0,0
23.09.2018 13:00:00 9,0 1,7 - - 0,0
23.09.2018 12:00:00 8,2 1,9 - - 0,0
23.09.2018 11:00:00 8,3 2,3 - - 0,0
23.09.2018 10:00:00 4,1 3,3 9,5 11,0 0,0
23.09.2018 09:00:00 0,0 0,0 - - 0,0
23.09.2018 08:00:00 -1,6 -1,7 - - 0,0
23.09.2018 07:00:00 -1,4 -1,4 - - 0,0
23.09.2018 06:00:00 -1,5 -1,6 - - 0,0
23.09.2018 05:00:00 -2,0 -2,3 - - 0,0
23.09.2018 04:00:00 -0,9 -1,3 - - 0,0
23.09.2018 03:00:00 -0,5 -0,7 - - 0,0
23.09.2018 02:00:00 0,2 -0,1 - - 0,0
23.09.2018 01:00:00 0,7 0,2 - - 0,0
23.09.2018 00:00:00 2,0 1,8 - - 0,2
22.09.2018 23:00:00 2,7 2,2 - - 0,0
22.09.2018 22:00:00 3,3 2,7 - - 0,0
22.09.2018 21:00:00 5,2 4,0 - - 0,0
22.09.2018 20:00:00 6,7 3,6 - - 0,4
22.09.2018 19:00:00 6,5 4,4 - - 0,0
22.09.2018 18:00:00 7,9 4,6 - - 0,4
22.09.2018 17:00:00 9,8 3,5 - - 0,0
22.09.2018 16:00:00 10,5 4,0 - - 0,2
22.09.2018 15:00:00 11,0 3,2 - - 0,0
22.09.2018 14:00:00 11,6 3,0 - - 0,0
22.09.2018 13:00:00 10,5 4,0 - - 0,0
22.09.2018 12:00:00 9,5 2,9 - - 0,0
22.09.2018 11:00:00 8,7 3,1 - - 0,0
22.09.2018 10:00:00 7,8 2,8 10,0 11,2 0,0
22.09.2018 09:00:00 6,7 2,6 - - 0,0
22.09.2018 08:00:00 5,6 2,1 - - 0,0
22.09.2018 07:00:00 5,8 1,9 - - 0,0
22.09.2018 06:00:00 6,6 2,1 - - 0,0
22.09.2018 05:00:00 6,1 3,1 - - 0,0
22.09.2018 04:00:00 5,5 2,3 - - 0,0
22.09.2018 03:00:00 6,0 2,9 - - 0,0
22.09.2018 02:00:00 6,0 3,1 - - 0,0
22.09.2018 01:00:00 5,9 3,4 - - 0,0
22.09.2018 00:00:00 5,7 2,8 - - 0,0
21.09.2018 23:00:00 6,0 3,2 - - 0,0
21.09.2018 22:00:00 6,5 3,2 - - 0,0
21.09.2018 21:00:00 5,9 2,6 - - 0,0
21.09.2018 20:00:00 6,9 2,9 - - 0,0
21.09.2018 19:00:00 7,9 2,5 - - 0,0
21.09.2018 18:00:00 8,8 1,7 - - 0,0
21.09.2018 17:00:00 10,1 1,9 - - 0,0
21.09.2018 16:00:00 10,1 2,3 - - 0,0
21.09.2018 15:00:00 9,0 3,3 - - 0,0
21.09.2018 14:00:00 8,8 2,7 - - 0,0
21.09.2018 13:00:00 8,5 3,7 - - 0,2
21.09.2018 12:00:00 7,2 4,0 - - 0,2
21.09.2018 11:00:00 7,3 4,0 - - 0,2
21.09.2018 10:00:00 7,4 3,4 10,5 11,4 0,0
21.09.2018 09:00:00 6,9 2,8 - - 0,0
21.09.2018 08:00:00 7,0 1,6 - - 0,0
21.09.2018 07:00:00 6,3 2,8 - - 0,0
21.09.2018 06:00:00 6,4 2,8 - - 0,0
21.09.2018 05:00:00 6,5 3,1 - - 0,0
21.09.2018 04:00:00 5,6 3,2 - - 0,0
21.09.2018 03:00:00 6,0 3,2 - - 0,2
21.09.2018 02:00:00 5,6 3,1 - - 0,0
21.09.2018 01:00:00 5,0 4,1 - - 0,0
21.09.2018 00:00:00 5,3 4,3 - - 0,2
20.09.2018 23:00:00 6,0 4,7 - - 0,2
20.09.2018 22:00:00 6,0 4,8 - - 0,0
20.09.2018 21:00:00 6,5 4,5 - - 0,0
20.09.2018 20:00:00 7,0 4,7 - - 0,0
20.09.2018 19:00:00 8,8 4,1 - - 0,0
20.09.2018 18:00:00 9,7 3,1 - - 0,0
20.09.2018 17:00:00 10,1 3,3 - - 0,0
20.09.2018 16:00:00 10,3 4,5 - - 0,0
20.09.2018 15:00:00 11,1 4,3 - - 0,0
20.09.2018 14:00:00 10,9 4,5 - - 0,0
20.09.2018 13:00:00 11,4 4,3 - - 0,0
20.09.2018 12:00:00 9,8 4,6 - - 0,0
20.09.2018 11:00:00 9,0 4,2 - - 0,0
20.09.2018 10:00:00 9,0 3,9 10,7 11,7 0,0
20.09.2018 09:00:00 7,1 4,0 - - 0,6
20.09.2018 08:00:00 6,4 4,3 - - 1,2
20.09.2018 07:00:00 7,0 3,3 - - 0,0
20.09.2018 06:00:00 6,7 3,4 - - 0,0
20.09.2018 05:00:00 7,0 3,7 - - 0,2
20.09.2018 04:00:00 6,2 4,9 - - 1,6
20.09.2018 03:00:00 6,5 4,3 - - 0,0
20.09.2018 02:00:00 5,6 3,4 - - 0,2
20.09.2018 01:00:00 5,7 3,7 - - 1,8
20.09.2018 00:00:00 6,2 4,9 - - 1,4
19.09.2018 23:00:00 7,0 3,8 - - 0,4
19.09.2018 22:00:00 7,3 4,4 - - 0,4

tt = temperature
td = dewpoint
tt -20cm = temperature -20cm
tt -100cm = temperature -100cm
rr = precipitation

Next stations